DECAYED
Showing default

PEARL WHITE 2, 44498 (Decayed)

Orbit data source: Space-Track

PEARL WHITE 2, 44498 was a payload satellite owned by USAF AFSPC (US) in LEO that was launched on Mon, 19 Aug 2019 UTC via an ELECTRON launch vehicle from the Rocket Lab Launch Complex (RLLC). Payload-class satellites include a variety of spacecraft equipped with specific instruments for various scientific and technological missions. These include communications satellites like Starlink; space stations such as the ISS; scientific satellites like the Hubble; Earth observation satellites from companies like Planet Labs, Umbra, and HawkEye 360; GPS; miniature CubeSats for education and research; and military/defense satellites.

Not visible in the next 10 days
Identifier
44498, 2019-054D
Orbit
Decayed
Last TLE update
5 months ago
Origin
Manufacturer
Tiger Innov.
Mission
Decayed Defense Technology
Bus & Motor
CUBESAT 6U, Unknown motor
Mass
10 kg wet, ~10 kg dry
Launch date (UTC)
2019-08-19 (6 years ago)
Launch vehicle
ELECTRON
Launch site
Rocket Lab Launch Complex (RLLC)
Object type
Payload
Rocket body
Debris
Shape & HBR
Box, 0.1 m
Radar Cross Section
0.105 m², Medium (>0.1 m² and < 1m²)

Expand to show TLE details & history

TLE from 5 months ago
0 PEARL WHITE 2
1 44498U 19054D   25061.90455823  .06964169  10458-4  61281-3 0  9992
2 44498  44.9766   7.4152 0003832 221.0606 139.0031 16.38229822307278
Epoch: 2025-03-02T21:42Z
TLE epoch observation values (Epoch: 2025-03-02T21:42:33.831Z)
Latitude
0.00002°
Longitude
-119.15573°
Altitude
172.406 km
Speed
7.804 km/s
True Right ascension
00h 29m 39s
True Declination
0° 00' 00"
Sunlit
Object was in daylight at epoch
Visualization orbit readout
Visualization observer readout
Orbital elements
Apogee altitude
174.716 km
Perigee altitude
169.695 km
Semi-major axis
6,550.342 km
Eccentricity
0.00038
Inclination
44.9766°
RAAN
7.4152°
Arg. of periapsis
221.0606°
True anomaly
139.0319°
Mean anomaly
139.0031°
Eccentric anomaly
139.0175°
Mean motion
4.09399 °/min
Orbital period
87.93 mins
BSTAR
0.00061281
Loading maneuver chart data...
Loading SW <> Apogee altitude chart data...
Loading historical data...
Loading historical data...
Loading historical data...
Loading historical data...
Loading historical data...
Loading historical data...
Loading historical data...
|